QAEM 100 R/B

Satellite information

Favourite Embed

Satellite Type and Status

ROCKET BODYIN ORBIT

Key statistics

Satellite QAEM 100 R/B at a glance.

Uptime

694

Days in orbit

Revolutions

≈ 14.4

Per day

Orbit

LEO

Low Earth Orbit

Inclination

64.5

Latest

Satellite identification and parameters

Extended collection of information and parameters for QAEM 100 R/B.

Object identification

Identified? True

Debris? False

Object name: QAEM 100 R/B

International designator: 2024-015B

Object number (NORAD): 58818

Object ID (CCSDS): 58818

Country: IRAN (IRAN)

Current information (Y/N): Y

RCS size: MEDIUM

Orbital parameters

Period: 99.711 minutes

Inclination: 64.5028 deg

SMA: 7122.86 km

Apoapsis: 774.717 km

Periapsis: 714.733 km

RAAN: 258.5482 deg

Eccentricy: 0.00421071

Argument of periapsis: 268.6554 deg

Mean anomaly: 90.9708 deg

Mean motion: 14.44179414 rev/day

Mean motion (dot): 0.00000398 rev/day2

B* drag term: 0.00014609053 1/REarth

Two-line elements (TLE)

Creation date: Dec. 12, 2025, 10:14 a.m.

Reference frame: TEME

Reference center: EARTH

Epoch: Dec. 12, 2025, 3:32 a.m. UTC

TLE line 0: 0 QAEM 100 R/B

TLE line 1: 1 58818U 24015B 25346.14728330 .00000398 00000-0 14609-3 0 9993

TLE line 2: 2 58818 64.5028 258.5482 0042107 268.6554 90.9708 14.44179414 99898

Live tracking on map

Real-time ground track for satellite QAEM 100 R/B.

In-orbit conjunctions

A list of the most updated potential collisions computed for object QAEM 100 R/B.

Target Orbit TCA Probability of collision Miss distance Type
SL-8 DEB LEO 2025-10-06 22:21:02 0.0003833591 320.0 (m) DEBRIS
FENGYUN 1C DEB SSO 2025-07-27 04:29:21 0.0006105784 134.0 (m) DEBRIS
NOAA 16 DEB SSO 2025-05-30 16:11:46 0.0001991944 274.0 (m) DEBRIS
FENGYUN 1C DEB SSO 2025-04-18 01:51:15 0.0002271719 720.0 (m) DEBRIS

Associated space launch

Satellite of unknown purposes for the Iranian Space Organization, orbiting in an 750 km high LEO.

QAEM 100 R/B was lifted into orbit during the mission ‘Qaem 100 | Soraya’, on board a Qaem 100 space rocket.

The launch took place on Jan. 20, 2024, 6:28 a.m. from Launch Platform.

For more information about the launch, click the button.

Launch to space Qaem 100 | Soraya
Qaem 100 | Soraya

Agency: N/A

Status: Launch Successful

Launch date: Jan. 20, 2024, 6:28 a.m. UTC

Rocket: Qaem 100

Launch pad: Launch Platform

Location: Shahrud Missile Test Site, Islamic Republic of Iran

...

Latest news about this satellite

News about space launch
Rocket Report: Iran reaches orbit; Chinese firm achieves impressive landing test

"Our investors’ continued support is a recognition of our 18 months of hard work."


Newsletter sign-up

Weekly statistics, charts and insights to help you stay on top of the space industry.